Wind_Speed
8 7 6 7 6 6 6 5 7 8 10 9 9 10 10 10 11 11 9 8 8 8 9 9 8 9 9 8 9 9 8 7 7 7 6 5 5 5 4 4 4 5 5 5
10 8 8 10 10 9 8 7 9 9 10 10 10 10 10 10 12 12 11 10 9 10 10 10 9 10 10 9 9 9 8 7 7 7 7 7 6 5 5 5 5 6 6 6
11 10 12 12 11 10 8 9 11 10 11 10 10 11 11 11 12 12 11 10 11 10 11 10 10 9 10 10 9 9 9 8 8 8 8 7 7 6 6 7 6 7 7 7
13 12 13 13 11 10 10 11 11 11 10 10 10 12 13 13 12 12 11 10 10 10 12 11 11 10 9 9 9 9 10 8 8 8 8 8 7 7 8 8 8 8 8 8
13 13 14 13 12 12 12 12 11 11 11 10 8 12 15 14 12 12 12 12 11 10 12 12 12 11 10 9 9 9 10 9 8 9 8 9 9 9 9 9 9 9 8 8
14 14 15 15 14 14 13 11 10 10 11 11 9 11 14 14 14 13 14 15 12 13 13 13 13 12 10 10 10 9 9 10 9 9 9 10 10 10 10 10 10 10 10 9
14 14 15 14 14 14 12 11 11 12 12 12 11 11 14 14 15 16 15 15 14 14 14 13 13 12 10 11 11 11 10 11 11 11 11 11 11 12 12 12 11 10 10 10
13 14 16 17 16 15 13 13 13 13 13 13 13 11 13 16 17 17 15 15 15 15 14 14 14 13 13 13 13 12 12 12 12 12 12 12 12 13 13 12 11 11 11 11
14 15 17 17 17 16 15 14 13 14 14 15 13 13 15 15 16 16 16 17 17 16 16 16 15 14 14 13 13 13 13 12 12 12 13 13 13 13 14 14 13 13 12 12
17 17 16 18 17 15 15 14 14 14 15 15 14 15 18 18 19 18 18 17 18 18 17 17 17 17 17 15 13 14 14 14 13 13 14 14 14 15 15 15 15 14 14 14
19 18 17 18 18 16 16 16 15 16 17 17 16 16 19 21 21 21 17 17 19 19 19 19 18 18 17 17 17 16 14 14 14 14 15 15 15 16 16 16 16 16 16 16
20 19 19 19 19 18 18 18 18 19 19 19 19 19 18 21 21 19 20 19 19 19 20 20 20 19 18 17 17 17 16 16 15 15 16 16 16 17 17 17 17 17 17 17
21 21 19 17 17 18 20 19 20 21 20 20 20 21 19 22 22 21 21 21 21 21 19 20 21 21 19 18 18 17 17 17 17 17 17 17 17 17 17 17 18 18 18 18
23 22 20 19 18 19 21 20 20 20 21 20 21 23 23 22 23 24 23 24 22 22 21 21 21 21 21 20 19 19 19 18 18 18 18 18 19 19 19 19 19 19 19 19
24 23 22 23 22 21 21 21 21 21 22 23 23 24 24 24 25 25 25 25 23 24 23 22 22 22 21 21 20 20 20 21 20 20 20 20 20 20 20 20 20 19 19 19
24 25 25 26 24 23 23 23 22 22 22 24 24 24 25 27 29 29 29 27 26 25 25 25 24 23 22 22 22 21 21 22 21 21 21 21 21 21 20 20 20 19 19 19
26 27 27 26 25 25 25 23 23 23 24 25 25 26 27 29 30 30 31 28 26 26 26 26 26 24 24 23 23 24 23 23 23 22 22 21 21 21 21 20 20 21 20 20
26 27 28 27 26 29 24 23 25 27 28 28 29 30 31 32 31 32 32 31 28 27 26 25 26 26 26 25 25 25 24 24 24 23 23 23 22 23 23 22 22 22 21 21
27 28 28 28 28 28 25 26 25 27 30 30 30 32 33 32 32 33 33 33 32 29 26 27 28 28 27 27 27 26 25 26 26 24 24 24 24 24 24 23 23 22 22 22
27 29 29 29 29 28 27 28 27 30 33 33 33 32 32 32 34 35 34 32 30 29 29 29 29 30 29 28 29 27 26 27 27 26 26 25 25 25 24 24 24 23 22 23
27 28 29 29 30 29 30 31 31 32 33 33 33 33 32 33 35 36 35 34 32 31 31 31 31 31 31 30 29 28 27 28 28 28 27 27 26 25 25 24 24 24 24 24
28 28 28 28 29 31 32 34 34 35 36 36 35 35 35 35 34 35 35 35 35 34 33 33 32 32 31 31 30 31 30 29 30 30 29 27 27 26 26 26 25 25 25 25
29 30 30 29 31 33 34 36 36 36 36 36 37 37 36 36 35 36 35 35 35 35 35 34 34 33 33 33 32 31 31 31 31 32 30 29 28 28 27 27 27 26 26 26
31 32 32 33 33 34 34 32 33 34 35 36 38 38 38 37 35 35 35 35 35 35 35 35 35 34 34 33 32 32 31 32 32 32 31 30 29 29 29 29 28 27 27 26
32 33 33 34 35 35 35 34 34 35 36 37 38 39 39 38 37 36 37 36 36 36 36 36 35 35 35 34 33 32 32 33 33 33 32 31 31 31 31 30 29 28 27 27
32 33 34 35 35 35 35 36 37 37 37 37 38 38 38 38 38 38 38 38 37 37 37 37 36 36 35 35 34 34 34 33 33 33 33 34 33 33 32 31 30 29 29 28
Wind_Direction
223 219 225 238 234 225 232 247 271 283 294 298 296 302 311 316 314 315 315 321 324 326 333 336 341 343 344 347 346 345 341 340 342 345 339 331 327 326 329 333 328 326 321 313
226 227 235 240 239 235 236 249 262 273 287 293 298 299 303 308 309 310 310 312 313 313 317 325 328 331 332 334 336 338 334 327 330 335 340 332 323 324 322 321 318 317 314 308
228 236 240 240 239 246 247 251 259 270 283 295 302 299 297 306 305 304 308 311 306 309 309 313 317 319 323 324 325 331 329 323 324 325 328 329 321 315 314 314 312 313 313 306
229 237 241 242 241 247 254 254 261 267 275 284 290 292 294 296 298 298 297 298 307 309 305 306 308 310 314 316 318 326 325 320 321 322 321 320 323 314 313 311 306 305 305 301
231 238 242 243 247 249 251 254 261 267 269 269 278 285 292 295 298 300 299 298 303 303 300 299 300 304 303 308 315 319 321 319 320 319 315 312 316 319 314 310 305 298 297 295
235 241 242 245 247 248 251 256 259 264 276 280 275 269 279 285 291 294 293 297 299 299 296 293 291 294 296 301 303 305 308 310 313 313 312 312 316 319 316 312 304 296 291 289
239 241 245 244 245 250 250 258 266 274 279 281 269 265 273 279 287 290 288 290 297 296 293 293 294 293 295 297 295 295 300 302 304 306 307 308 311 313 312 311 308 301 295 292
247 249 250 247 245 247 246 248 257 270 275 277 274 261 266 272 281 286 288 285 285 289 288 290 293 292 292 293 292 291 293 295 298 301 302 304 307 307 308 309 309 304 301 296
241 247 249 253 251 248 247 244 252 265 270 270 271 273 274 268 273 280 283 285 284 282 282 285 289 289 289 284 286 289 289 290 292 295 298 301 304 306 305 305 306 304 302 300
233 246 248 255 257 254 254 251 252 255 265 267 263 267 272 269 274 275 276 279 280 280 281 283 285 286 287 285 284 284 284 286 290 294 295 300 303 303 303 302 304 304 300 297
235 239 246 250 254 255 255 255 254 254 256 262 267 267 271 273 275 275 279 276 272 273 277 280 282 282 283 285 284 283 283 284 288 292 293 297 300 302 302 298 297 297 296 295
235 236 241 247 254 256 255 253 253 256 259 260 263 267 272 276 279 279 278 273 273 279 277 279 278 278 281 283 284 283 282 283 284 287 289 292 296 297 297 295 294 294 294 293
235 234 239 246 251 254 255 251 252 252 257 261 264 268 267 275 275 273 275 275 277 280 279 278 277 276 278 280 281 281 280 282 283 285 289 292 296 296 295 294 292 291 291 290
240 237 235 240 242 248 252 256 257 255 255 258 260 266 268 269 269 271 272 274 276 277 278 275 276 276 278 279 277 276 277 280 282 285 288 290 293 293 291 291 290 288 286 284
242 240 239 240 240 246 248 250 255 257 255 256 258 261 263 264 269 271 272 274 270 274 273 273 275 275 276 276 276 274 273 276 279 281 284 288 290 291 291 291 289 286 285 283
245 242 242 243 243 248 254 253 253 258 261 261 262 263 264 262 268 270 272 274 271 271 271 272 274 274 275 276 276 275 273 274 276 278 281 283 286 288 289 290 289 289 288 286
249 251 250 250 248 249 250 255 257 257 257 257 257 258 258 260 262 265 269 270 267 267 270 271 272 273 271 274 275 276 273 273 275 277 279 279 282 285 287 287 288 288 287 289
254 253 253 254 252 254 254 255 256 255 254 256 259 260 261 263 263 266 269 269 269 268 269 272 273 272 272 272 274 274 273 273 272 274 277 278 280 282 283 284 285 286 288 288
254 254 255 255 256 259 260 257 257 257 257 257 258 259 262 265 267 267 268 269 271 269 269 271 272 271 270 273 274 270 269 271 271 271 274 277 279 280 282 283 284 284 286 285
255 256 255 256 257 258 257 258 256 257 260 260 258 260 263 265 267 267 268 268 270 270 269 269 270 270 270 271 271 269 268 268 269 270 272 273 276 279 281 281 282 282 282 283
254 257 257 257 259 258 255 255 254 253 257 262 262 262 263 262 264 267 268 269 268 268 268 269 270 271 270 272 273 271 270 269 271 272 270 271 273 276 278 280 280 281 281 281
253 255 256 256 256 255 256 257 257 256 258 262 265 266 265 264 265 265 266 267 267 267 267 267 268 268 269 271 273 273 273 272 271 270 270 270 272 274 276 277 278 280 280 280
253 253 252 251 252 255 258 259 259 259 259 260 263 265 266 266 265 265 264 265 265 266 266 267 267 267 267 268 269 271 272 271 271 270 270 272 272 273 274 274 275 277 278 279
255 254 254 254 255 257 259 260 260 261 261 261 262 263 264 266 266 266 266 266 266 266 266 266 266 266 266 267 267 268 269 270 270 269 270 271 272 273 275 276 275 275 274 277
259 261 260 259 258 258 259 261 262 262 261 262 262 262 264 265 265 265 266 266 267 267 265 265 265 266 266 267 266 266 267 267 268 268 269 271 272 274 276 276 277 276 275 275
259 261 262 263 260 259 260 262 263 264 264 263 262 262 264 265 265 266 266 266 266 267 265 264 263 263 264 265 265 265 265 266 266 267 269 270 271 273 273 273 276 276 274 274
Height
5916 5918 5919 5921 5923 5924 5925 5926 5926 5927 5925 5925 5923 5922 5921 5920 5919 5917 5916 5915 5915 5914 5913 5912 5911 5910 5910 5909 5908 5907 5906 5906 5905 5905 5904 5904 5904 5903 5903 5903 5903 5903 5903 5902
5915 5917 5919 5920 5921 5922 5923 5925 5925 5925 5924 5924 5923 5921 5920 5919 5918 5917 5916 5914 5914 5913 5913 5912 5911 5910 5909 5909 5908 5907 5906 5906 5905 5905 5904 5904 5903 5903 5903 5903 5903 5902 5902 5902
5914 5916 5917 5918 5919 5921 5921 5923 5923 5923 5923 5923 5922 5920 5918 5917 5917 5916 5915 5913 5913 5912 5911 5911 5910 5909 5909 5908 5907 5906 5906 5905 5904 5904 5904 5903 5903 5903 5903 5902 5902 5902 5901 5901
5911 5914 5915 5916 5917 5918 5920 5921 5921 5921 5921 5921 5921 5920 5918 5915 5915 5914 5913 5913 5912 5911 5910 5909 5909 5908 5908 5907 5906 5905 5905 5904 5904 5903 5903 5902 5902 5902 5902 5901 5901 5900 5900 5900
5909 5911 5912 5914 5916 5917 5918 5918 5918 5919 5918 5918 5919 5919 5917 5914 5912 5912 5912 5910 5909 5909 5909 5908 5907 5907 5906 5906 5905 5905 5904 5903 5903 5903 5902 5902 5901 5900 5900 5900 5899 5899 5899 5899
5906 5908 5910 5911 5913 5914 5915 5916 5916 5916 5915 5916 5916 5917 5915 5913 5911 5910 5910 5908 5907 5908 5907 5906 5905 5904 5904 5904 5904 5904 5903 5902 5902 5901 5901 5900 5900 5899 5898 5898 5898 5897 5897 5897
5903 5905 5906 5908 5910 5911 5913 5914 5914 5914 5914 5914 5915 5914 5914 5911 5910 5909 5908 5907 5906 5906 5904 5904 5903 5902 5902 5902 5902 5902 5901 5901 5900 5900 5899 5899 5898 5898 5897 5896 5896 5895 5895 5895
5902 5904 5904 5905 5907 5908 5909 5911 5913 5913 5913 5912 5911 5910 5910 5909 5908 5907 5906 5905 5904 5903 5902 5901 5901 5900 5900 5900 5900 5900 5899 5899 5898 5898 5898 5897 5897 5896 5895 5894 5893 5893 5893 5892
5899 5901 5902 5902 5903 5905 5906 5907 5910 5911 5910 5910 5909 5908 5906 5904 5904 5903 5903 5903 5901 5900 5900 5898 5898 5897 5896 5896 5896 5897 5897 5896 5896 5896 5895 5895 5894 5893 5893 5892 5891 5890 5890 5890
5895 5897 5898 5899 5900 5901 5903 5904 5906 5906 5906 5906 5907 5906 5904 5901 5899 5898 5898 5899 5898 5897 5896 5896 5895 5895 5893 5892 5893 5893 5894 5893 5893 5893 5893 5892 5892 5891 5890 5889 5889 5888 5888 5887
5891 5893 5895 5896 5897 5898 5899 5900 5901 5902 5902 5903 5902 5904 5901 5899 5896 5894 5892 5893 5893 5893 5893 5892 5892 5892 5892 5891 5890 5890 5890 5890 5890 5890 5890 5890 5889 5888 5888 5887 5886 5885 5885 5884
5886 5888 5890 5892 5893 5894 5895 5896 5897 5898 5898 5898 5898 5901 5896 5894 5892 5890 5889 5888 5887 5888 5887 5888 5888 5887 5888 5888 5888 5887 5887 5887 5887 5887 5887 5887 5886 5885 5884 5883 5883 5882 5881 5880
5879 5883 5885 5888 5891 5890 5890 5890 5892 5893 5893 5893 5894 5895 5892 5890 5888 5886 5885 5883 5884 5884 5882 5883 5884 5884 5884 5884 5884 5884 5883 5883 5883 5883 5883 5883 5882 5882 5881 5880 5879 5878 5877 5876
5874 5876 5880 5883 5884 5884 5883 5885 5886 5887 5888 5888 5888 5887 5887 5884 5882 5881 5880 5880 5879 5879 5879 5879 5879 5879 5879 5879 5879 5879 5879 5879 5879 5879 5879 5879 5878 5877 5877 5876 5875 5874 5873 5872
5868 5870 5872 5874 5876 5877 5878 5879 5880 5881 5882 5882 5882 5881 5880 5878 5876 5875 5874 5874 5873 5874 5874 5873 5874 5875 5875 5875 5874 5874 5875 5875 5875 5875 5875 5874 5874 5873 5872 5871 5869 5869 5868 5867
5861 5863 5865 5867 5869 5870 5870 5872 5873 5875 5875 5875 5875 5874 5873 5872 5872 5870 5868 5869 5868 5869 5869 5869 5870 5870 5870 5870 5869 5869 5870 5870 5870 5870 5870 5869 5869 5868 5867 5866 5865 5864 5863 5862
5854 5856 5858 5860 5862 5862 5865 5867 5867 5867 5867 5867 5867 5868 5866 5865 5865 5865 5863 5863 5862 5863 5863 5864 5865 5865 5865 5864 5864 5864 5864 5864 5865 5865 5864 5864 5863 5862 5862 5861 5860 5859 5858 5858
5848 5849 5851 5852 5855 5855 5860 5860 5859 5859 5859 5860 5859 5858 5857 5857 5857 5857 5856 5855 5856 5857 5857 5858 5858 5858 5858 5858 5858 5858 5858 5858 5858 5859 5858 5858 5857 5857 5856 5855 5855 5854 5853 5852
5842 5842 5843 5845 5846 5848 5851 5851 5851 5851 5850 5851 5850 5850 5850 5849 5849 5849 5849 5849 5850 5851 5850 5851 5851 5851 5852 5852 5851 5851 5851 5851 5852 5852 5852 5852 5852 5851 5850 5850 5849 5848 5847 5846
5834 5834 5836 5837 5838 5841 5843 5842 5842 5843 5841 5841 5841 5842 5842 5842 5841 5840 5840 5842 5842 5843 5844 5844 5844 5844 5844 5844 5843 5843 5844 5844 5844 5845 5845 5845 5845 5845 5844 5843 5842 5842 5841 5840
5826 5826 5827 5829 5830 5831 5833 5831 5832 5834 5833 5832 5832 5832 5832 5833 5833 5833 5833 5834 5834 5834 5835 5836 5836 5835 5836 5836 5835 5835 5836 5837 5837 5838 5838 5838 5838 5837 5837 5836 5836 5835 5835 5834
5817 5819 5819 5820 5821 5823 5821 5822 5822 5822 5823 5823 5822 5822 5823 5823 5823 5824 5824 5824 5824 5825 5827 5827 5827 5828 5828 5828 5828 5829 5829 5830 5830 5830 5830 5829 5830 5830 5830 5829 5829 5828 5828 5828
5809 5810 5810 5810 5812 5811 5811 5811 5811 5812 5813 5813 5813 5813 5813 5813 5814 5814 5814 5814 5815 5816 5817 5818 5818 5819 5819 5820 5820 5821 5821 5821 5821 5821 5822 5822 5821 5822 5822 5821 5821 5821 5821 5821
5799 5800 5801 5801 5802 5801 5801 5800 5801 5802 5802 5802 5802 5803 5803 5803 5804 5804 5804 5805 5805 5806 5807 5808 5809 5810 5810 5811 5811 5812 5812 5812 5813 5812 5813 5813 5813 5814 5814 5813 5813 5813 5813 5813
5790 5791 5791 5791 5792 5792 5792 5791 5791 5792 5792 5791 5791 5792 5792 5793 5793 5794 5794 5795 5795 5796 5797 5798 5799 5800 5801 5802 5802 5803 5803 5803 5804 5804 5804 5804 5805 5805 5805 5805 5805 5806 5806 5805
5782 5781 5781 5781 5782 5782 5782 5782 5781 5781 5780 5780 5780 5781 5781 5782 5783 5783 5784 5784 5785 5785 5786 5787 5788 5789 5790 5791 5793 5793 5794 5794 5795 5795 5795 5796 5796 5797 5797 5797 5797 5798 5798 5797